| time (UTC) | temp F | wind direction | speed MPH | gust MPH | rain 1hr in | rain 24hr in | rain mn in | humidity % | barometer mb |
| 20260505153004 | 72 | 360 | 6.0 | 20.0 | 0.00 | 0.01 | 0.01 | 48 | 1004.5 |
| 20260505152216 | 72 | 360 | 6.0 | 20.0 | 0.00 | 0.01 | 0.01 | 49 | 1004.6 |
| 20260505151004 | 72 | 360 | 5.0 | 17.0 | 0.00 | 0.01 | 0.01 | 48 | 1004.4 |
| 20260505140213 | 72 | 360 | 6.0 | 20.0 | 0.00 | 0.01 | 0.01 | 49 | 1003.9 |
| 20260505130217 | 70 | 360 | 5.0 | 23.0 | 0.00 | 0.01 | 0.01 | 51 | 1003.9 |
| 20260505125003 | 69 | 360 | 5.0 | 18.0 | 0.00 | 0.01 | 0.01 | 55 | 1004.1 |
| 20260505124005 | 70 | 360 | 4.0 | 11.0 | 0.00 | 0.01 | 0.01 | 54 | 1004.1 |
| 20260505123005 | 69 | 360 | 5.0 | 15.0 | 0.00 | 0.01 | 0.01 | 55 | 1004.0 |
| 20260505122005 | 69 | 360 | 5.0 | 10.0 | 0.00 | 0.01 | 0.01 | 55 | 1004.2 |
| 20260505121003 | 68 | 360 | 7.0 | 21.0 | 0.00 | 0.01 | 0.01 | 56 | 1004.1 |
| 20260505120004 | 67 | 360 | 4.0 | 21.0 | 0.00 | 0.01 | 0.01 | 57 | 1003.9 |
| 20260505115003 | 67 | 360 | 5.0 | 19.0 | 0.00 | 0.01 | 0.01 | 57 | 1004.0 |
| 20260505114003 | 65 | 360 | 4.0 | 16.0 | 0.00 | 0.01 | 0.01 | 61 | 1004.0 |
| 20260505113003 | 64 | 360 | 3.0 | 10.0 | 0.00 | 0.01 | 0.01 | 62 | 1004.0 |
| 20260505112004 | 64 | 360 | 3.0 | 9.0 | 0.00 | 0.01 | 0.01 | 63 | 1003.8 |
| 20260505111006 | 63 | 360 | 3.0 | 10.0 | 0.00 | 0.01 | 0.01 | 63 | 1003.9 |
| 20260505102005 | 62 | 360 | 4.0 | 11.0 | 0.00 | 0.01 | 0.01 | 67 | 1003.4 |
| 20260505101214 | 61 | 360 | 4.0 | 9.0 | 0.00 | 0.01 | 0.01 | 68 | 1003.3 |
| 20260505100003 | 60 | 360 | 3.0 | 9.0 | 0.00 | 0.01 | 0.01 | 72 | 1003.4 |
| 20260505095003 | 60 | 360 | 3.0 | 9.0 | 0.00 | 0.01 | 0.01 | 73 | 1003.4 |
| 20260505094006 | 59 | 360 | 2.0 | 8.0 | 0.00 | 0.01 | 0.01 | 76 | 1003.3 |
| 20260505093213 | 59 | 360 | 2.0 | 6.0 | 0.00 | 0.01 | 0.01 | 77 | 1003.4 |
| 20260505092005 | 59 | 360 | 1.0 | 5.0 | 0.00 | 0.01 | 0.01 | 79 | 1003.4 |
| 20260505091004 | 59 | 360 | 2.0 | 8.0 | 0.00 | 0.01 | 0.01 | 80 | 1003.4 |
| 20260505090004 | 59 | 360 | 1.0 | 7.0 | 0.00 | 0.01 | 0.01 | 83 | 1003.4 |
| 20260505085004 | 59 | 360 | 2.0 | 6.0 | 0.01 | 0.01 | 0.01 | 83 | 1003.4 |
| 20260505084215 | 59 | 360 | 2.0 | 6.0 | 0.01 | 0.01 | 0.01 | 83 | 1003.4 |
| 20260505083004 | 59 | 360 | 3.0 | 7.0 | 0.01 | 0.01 | 0.01 | 80 | 1003.6 |
| 20260505082215 | 60 | 360 | 3.0 | 7.0 | 0.01 | 0.01 | 0.01 | 78 | 1003.8 |
| 20260505081004 | 62 | 360 | 4.0 | 7.0 | 0.01 | 0.01 | 0.01 | 65 | 1004.3 |
| 20260505080004 | 62 | 360 | 4.0 | 12.0 | 0.01 | 0.01 | 0.01 | 65 | 1004.4 |
| 20260505075004 | 62 | 360 | 2.0 | 8.0 | 0.00 | 0.00 | 0.00 | 63 | 1004.0 |
| 20260505074213 | 62 | 360 | 3.0 | 9.0 | 0.00 | 0.00 | 0.00 | 64 | 1004.1 |
| 20260505073004 | 61 | 360 | 2.0 | 7.0 | 0.00 | 0.00 | 0.00 | 66 | 1003.9 |
| 20260505072006 | 61 | 360 | 1.0 | 7.0 | 0.00 | 0.00 | 0.00 | 67 | 1003.9 |
| 20260505071005 | 61 | 360 | 2.0 | 10.0 | 0.00 | 0.00 | 0.00 | 67 | 1004.0 |
| 20260505070004 | 62 | 360 | 2.0 | 10.0 | 0.00 | 0.00 | 0.00 | 66 | 1004.0 |
| 20260505065214 | 62 | 360 | 3.0 | 7.0 | 0.00 | 0.00 | 0.00 | 65 | 1003.9 |
| 20260505064004 | 62 | 360 | 3.0 | 9.0 | 0.00 | 0.00 | 0.00 | 65 | 1003.8 |
| 20260505063005 | 63 | 360 | 4.0 | 11.0 | 0.00 | 0.00 | 0.00 | 63 | 1003.8 |
| 20260505062214 | 63 | 360 | 4.0 | 14.0 | 0.00 | 0.00 | 0.00 | 62 | 1003.8 |
| 20260505061003 | 64 | 360 | 6.0 | 11.0 | 0.00 | 0.00 | 0.00 | 56 | 1003.9 |
| 20260505060005 | 64 | 360 | 4.0 | 11.0 | 0.00 | 0.00 | 0.00 | 54 | 1003.9 |
| 20260505055005 | 65 | 360 | 4.0 | 15.0 | 0.00 | 0.00 | 0.00 | 52 | 1003.9 |
| 20260505054006 | 65 | 360 | 5.0 | 14.0 | 0.00 | 0.00 | 0.00 | 50 | 1003.9 |
| 20260505053003 | 65 | 360 | 4.0 | 21.0 | 0.00 | 0.00 | 0.00 | 48 | 1004.1 |
| 20260505052003 | 65 | 360 | 4.0 | 10.0 | 0.00 | 0.00 | 0.00 | 48 | 1004.1 |
| 20260505051004 | 64 | 360 | 2.0 | 10.0 | 0.00 | 0.00 | 0.00 | 47 | 1004.1 |
| 20260505041005 | 62 | 360 | 2.0 | 3.0 | 0.00 | 0.00 | 0.00 | 48 | 1004.0 |
| 20260505040007 | 62 | 360 | 2.0 | 6.0 | 0.00 | 0.00 | 0.00 | 48 | 1004.0 |
| 20260505035213 | 62 | 360 | 1.0 | 5.0 | 0.00 | 0.00 | 0.00 | 48 | 1004.0 |
| 20260505034004 | 62 | 360 | 1.0 | 7.0 | 0.00 | 0.00 | 0.00 | 48 | 1003.9 |
| 20260505033004 | 62 | 360 | 1.0 | 5.0 | 0.00 | 0.00 | 0.00 | 47 | 1003.9 |
| 20260505032213 | 62 | 360 | 1.0 | 4.0 | 0.00 | 0.00 | 0.00 | 47 | 1004.1 |
| 20260505031004 | 62 | 360 | 1.0 | 4.0 | 0.00 | 0.00 | 0.00 | 48 | 1004.0 |
| 20260505030004 | 62 | 360 | 1.0 | 4.0 | 0.00 | 0.00 | 0.00 | 47 | 1004.0 |
| 20260505025004 | 62 | 360 | 0.0 | 5.0 | 0.00 | 0.00 | 0.00 | 46 | 1004.2 |
| 20260505024004 | 63 | 360 | 0.0 | 6.0 | 0.00 | 0.00 | 0.00 | 45 | 1004.1 |
| 20260505023004 | 63 | 360 | 2.0 | 6.0 | 0.00 | 0.00 | 0.00 | 44 | 1004.2 |
| 20260505022004 | 63 | 360 | 2.0 | 5.0 | 0.00 | 0.00 | 0.00 | 44 | 1004.2 |
| 20260505021215 | 63 | 360 | 2.0 | 4.0 | 0.00 | 0.00 | 0.00 | 44 | 1004.2 |
| 20260505020004 | 62 | 360 | 1.0 | 4.0 | 0.00 | 0.00 | 0.00 | 44 | 1004.1 |
| 20260505015003 | 62 | 360 | 0.0 | 4.0 | 0.00 | 0.00 | 0.00 | 44 | 1004.2 |
| 20260505014004 | 63 | 360 | 1.0 | 3.0 | 0.00 | 0.00 | 0.00 | 42 | 1004.2 |
| 20260505013007 | 63 | 360 | 1.0 | 4.0 | 0.00 | 0.00 | 0.00 | 42 | 1004.2 |
| 20260505012214 | 63 | 360 | 1.0 | 3.0 | 0.00 | 0.00 | 0.00 | 41 | 1004.2 |
| 20260505011215 | 63 | 360 | 1.0 | 4.0 | 0.00 | 0.00 | 0.00 | 41 | 1004.2 |
| 20260505010214 | 63 | 360 | 1.0 | 3.0 | 0.00 | 0.00 | 0.00 | 41 | 1004.1 |
| 20260505005004 | 63 | 360 | 1.0 | 3.0 | 0.00 | 0.00 | 0.00 | 41 | 1004.0 |
| 20260505004005 | 64 | 360 | 1.0 | 3.0 | 0.00 | 0.00 | 0.00 | 41 | 1004.1 |
| 20260505003004 | 64 | 360 | 0.0 | 3.0 | 0.00 | 0.00 | 0.00 | 41 | 1004.0 |
| 20260505002007 | 65 | 0 | 0.0 | 1.0 | 0.00 | 0.00 | 0.00 | 40 | 1004.0 |
| 20260505001005 | 66 | 360 | 0.0 | 2.0 | 0.00 | 0.00 | 0.00 | 38 | 1004.0 |
| 20260505000004 | 68 | 0 | 0.0 | 2.0 | 0.00 | 0.00 | 0.00 | 37 | 1003.8 |
| 20260504235003 | 69 | 0 | 0.0 | 1.0 | 0.00 | 0.00 | 0.00 | 35 | 1004.0 |
| 20260504234214 | 70 | 360 | 0.0 | 4.0 | 0.00 | 0.00 | 0.00 | 32 | 1003.8 |
| 20260504233005 | 72 | 360 | 0.0 | 3.0 | 0.00 | 0.00 | 0.00 | 29 | 1003.9 |
| 20260504232004 | 72 | 360 | 0.0 | 2.0 | 0.00 | 0.00 | 0.00 | 28 | 1003.8 |
| 20260504231003 | 73 | 360 | 1.0 | 5.0 | 0.00 | 0.00 | 0.00 | 26 | 1003.8 |
| 20260504230003 | 74 | 360 | 2.0 | 8.0 | 0.00 | 0.00 | 0.00 | 27 | 1003.9 |
| 20260504225003 | 75 | 360 | 1.0 | 7.0 | 0.00 | 0.00 | 0.00 | 26 | 1003.9 |
| 20260504224004 | 77 | 360 | 3.0 | 9.0 | 0.00 | 0.00 | 0.00 | 26 | 1004.1 |
| 20260504223003 | 77 | 360 | 3.0 | 8.0 | 0.00 | 0.00 | 0.00 | 25 | 1004.2 |
| 20260504222003 | 76 | 360 | 3.0 | 10.0 | 0.00 | 0.00 | 0.00 | 27 | 1004.1 |
| 20260504221004 | 74 | 360 | 3.0 | 10.0 | 0.00 | 0.00 | 0.00 | 28 | 1004.2 |
| 20260504220004 | 74 | 360 | 5.0 | 13.0 | 0.00 | 0.00 | 0.00 | 28 | 1004.1 |
| 20260504215003 | 74 | 360 | 4.0 | 13.0 | 0.00 | 0.00 | 0.00 | 27 | 1004.3 |
| 20260504214213 | 74 | 360 | 3.0 | 12.0 | 0.00 | 0.00 | 0.00 | 28 | 1004.2 |
| 20260504213006 | 74 | 360 | 5.0 | 13.0 | 0.00 | 0.00 | 0.00 | 28 | 1004.3 |
| 20260504212004 | 74 | 360 | 6.0 | 13.0 | 0.00 | 0.00 | 0.00 | 28 | 1004.4 |
| 20260504211005 | 75 | 360 | 5.0 | 16.0 | 0.00 | 0.00 | 0.00 | 29 | 1004.5 |
| 20260504210005 | 74 | 360 | 4.0 | 14.0 | 0.00 | 0.00 | 0.00 | 29 | 1004.3 |
| 20260504205215 | 74 | 360 | 5.0 | 13.0 | 0.00 | 0.00 | 0.00 | 29 | 1004.2 |
| 20260504204215 | 74 | 360 | 4.0 | 15.0 | 0.00 | 0.00 | 0.00 | 30 | 1004.4 |
| 20260504203003 | 74 | 360 | 4.0 | 13.0 | 0.00 | 0.00 | 0.00 | 31 | 1004.4 |
| 20260504202004 | 74 | 360 | 5.0 | 14.0 | 0.00 | 0.00 | 0.00 | 33 | 1004.7 |
| 20260504201005 | 74 | 360 | 5.0 | 10.0 | 0.00 | 0.00 | 0.00 | 32 | 1004.8 |
| 20260504200004 | 73 | 360 | 5.0 | 13.0 | 0.00 | 0.00 | 0.00 | 33 | 1004.9 |
| 20260504195006 | 73 | 360 | 6.0 | 22.0 | 0.00 | 0.00 | 0.00 | 32 | 1005.1 |
| 20260504194004 | 74 | 360 | 4.0 | 11.0 | 0.00 | 0.00 | 0.00 | 33 | 1005.3 |
| 20260504193003 | 74 | 360 | 5.0 | 13.0 | 0.00 | 0.00 | 0.00 | 34 | 1005.5 |
| 20260504192003 | 73 | 360 | 5.0 | 19.0 | 0.00 | 0.00 | 0.00 | 33 | 1005.4 |
| 20260504191214 | 73 | 360 | 5.0 | 12.0 | 0.00 | 0.00 | 0.00 | 33 | 1005.6 |
| 20260504190004 | 72 | 360 | 6.0 | 15.0 | 0.00 | 0.00 | 0.00 | 34 | 1005.6 |
| 20260504185003 | 72 | 360 | 7.0 | 19.0 | 0.00 | 0.00 | 0.00 | 33 | 1005.8 |
| 20260504184004 | 72 | 360 | 5.0 | 10.0 | 0.00 | 0.00 | 0.00 | 34 | 1005.8 |
| 20260504183003 | 72 | 360 | 6.0 | 13.0 | 0.00 | 0.00 | 0.00 | 34 | 1006.0 |
| 20260504182216 | 72 | 360 | 5.0 | 15.0 | 0.00 | 0.00 | 0.00 | 36 | 1005.9 |
| 20260504181005 | 71 | 360 | 7.0 | 14.0 | 0.00 | 0.00 | 0.00 | 36 | 1006.1 |
| 20260504180003 | 70 | 360 | 6.0 | 16.0 | 0.00 | 0.00 | 0.00 | 37 | 1006.2 |
| 20260504175005 | 70 | 360 | 7.0 | 25.0 | 0.00 | 0.00 | 0.00 | 37 | 1006.3 |
| 20260504174004 | 69 | 360 | 5.0 | 15.0 | 0.00 | 0.00 | 0.00 | 38 | 1006.2 |
| 20260504173003 | 69 | 360 | 5.0 | 16.0 | 0.00 | 0.00 | 0.00 | 39 | 1006.3 |
| 20260504172003 | 69 | 360 | 5.0 | 29.0 | 0.00 | 0.00 | 0.00 | 39 | 1006.3 |
| 20260504171003 | 69 | 360 | 5.0 | 15.0 | 0.00 | 0.00 | 0.00 | 39 | 1006.4 |
| 20260504160213 | 66 | 360 | 4.0 | 18.0 | 0.00 | 0.00 | 0.00 | 42 | 1006.8 |